Estación de Olivar Alto
Ultimos registro cada 15 minutos 58
| N° | Estación | Fecha / Hora | Temperatura | Humedad | Lluvia | Velocidad | Dirección | Radiación | Presion |
| 58 | Olivar Alto | 10-05-2026 14:15 | 27,2 | 31 | 0 | 0 | 227 | 497 | 1014,9 |
| 57 | Olivar Alto | 10-05-2026 14:00 | 26,8 | 32 | 0 | 0,9 | 214 | 517 | 1014,9 |
| 56 | Olivar Alto | 10-05-2026 13:45 | 26,4 | 35 | 0 | 0,4 | 192 | 534 | 1015 |
| 55 | Olivar Alto | 10-05-2026 13:30 | 26,2 | 30 | 0 | 0 | 240 | 552 | 1015,3 |
| 54 | Olivar Alto | 10-05-2026 13:15 | 25,3 | 28 | 0 | 0,4 | 138 | 563 | 1015,5 |
| 53 | Olivar Alto | 10-05-2026 13:00 | 24,4 | 34 | 0 | 0 | 242 | 570 | 1015,7 |
| 52 | Olivar Alto | 10-05-2026 12:45 | 23,6 | 36 | 0 | 0 | 284 | 577 | 1015,8 |
| 51 | Olivar Alto | 10-05-2026 12:30 | 22,8 | 36 | 0 | 0,4 | 354 | 575 | 1015,9 |
| 50 | Olivar Alto | 10-05-2026 12:15 | 22,2 | 40 | 0 | 0 | 316 | 573 | 1016 |
| 49 | Olivar Alto | 10-05-2026 12:00 | 21,3 | 38 | 0 | 0,4 | 354 | 568 | 1016,3 |
| 48 | Olivar Alto | 10-05-2026 11:45 | 20,1 | 46 | 0 | 0,4 | 355 | 557 | 1016,2 |
| 47 | Olivar Alto | 10-05-2026 11:30 | 18,8 | 55 | 0 | 0 | 352 | 543 | 1016,6 |
| 46 | Olivar Alto | 10-05-2026 11:15 | 17,5 | 57 | 0 | 0 | 349 | 522 | 1016,7 |
| 45 | Olivar Alto | 10-05-2026 11:00 | 16,4 | 58 | 0 | 0 | 349 | 503 | 1016,8 |
| 44 | Olivar Alto | 10-05-2026 10:45 | 15,5 | 61 | 0 | 0,4 | 344 | 480 | 1016,7 |
| 43 | Olivar Alto | 10-05-2026 10:30 | 14,1 | 67 | 0 | 0 | 346 | 452 | 1017 |
| 42 | Olivar Alto | 10-05-2026 10:15 | 12,3 | 81 | 0 | 0 | 346 | 425 | 1016,9 |
| 41 | Olivar Alto | 10-05-2026 10:00 | 10,6 | 89 | 0 | 0 | 346 | 381 | 1017 |
| 40 | Olivar Alto | 10-05-2026 09:45 | 9,4 | 97 | 0 | 0 | 346 | 338 | 1016,8 |
| 39 | Olivar Alto | 10-05-2026 09:30 | 7,8 | 98 | 0 | 0 | 348 | 306 | 1016,8 |
| 38 | Olivar Alto | 10-05-2026 09:15 | 6,6 | 98 | 0 | 0 | 347 | 163 | 1016,7 |
| 37 | Olivar Alto | 10-05-2026 09:00 | 5,7 | 98 | 0 | 0 | 238 | 26 | 1016,9 |
| 36 | Olivar Alto | 10-05-2026 08:45 | 4,7 | 98 | 0 | 0 | 220 | 21 | 1017 |
| 35 | Olivar Alto | 10-05-2026 08:30 | 3,2 | 97 | 0 | 0 | 217 | 19 | 1017 |
| 34 | Olivar Alto | 10-05-2026 08:15 | 1,9 | 97 | 0 | 0 | 217 | 18 | 1017 |
| 33 | Olivar Alto | 10-05-2026 08:00 | 0,6 | 96 | 0 | 0 | 218 | 16 | 1016,7 |
| 32 | Olivar Alto | 10-05-2026 07:45 | 0,2 | 95 | 0 | 0 | 218 | 11 | 1016,7 |
| 31 | Olivar Alto | 10-05-2026 07:30 | 0,5 | 95 | 0 | 0 | 218 | 5 | 1016,7 |
| 30 | Olivar Alto | 10-05-2026 07:15 | 0,7 | 94 | 0 | 0 | 218 | 0 | 1016,6 |
| 29 | Olivar Alto | 10-05-2026 07:00 | 1,2 | 95 | 0 | 0 | 219 | 0 | 1016,4 |
| 28 | Olivar Alto | 10-05-2026 06:45 | 1,4 | 95 | 0 | 0 | 219 | 0 | 1016,5 |
| 27 | Olivar Alto | 10-05-2026 06:30 | 1,5 | 96 | 0 | 0 | 219 | 0 | 1016,2 |
| 26 | Olivar Alto | 10-05-2026 06:15 | 1,4 | 95 | 0 | 0 | 218 | 0 | 1016,3 |
| 25 | Olivar Alto | 10-05-2026 06:00 | 1,5 | 95 | 0 | 0 | 215 | 0 | 1016,4 |
| 24 | Olivar Alto | 10-05-2026 05:45 | 1,4 | 94 | 0 | 0 | 215 | 0 | 1016,2 |
| 23 | Olivar Alto | 10-05-2026 05:30 | 1,9 | 95 | 0 | 0 | 215 | 0 | 1016,4 |
| 22 | Olivar Alto | 10-05-2026 05:15 | 2,2 | 96 | 0 | 0 | 213 | 0 | 1016,4 |
| 21 | Olivar Alto | 10-05-2026 05:00 | 2,1 | 96 | 0,2 | 0 | 213 | 0 | 1016,3 |
| 20 | Olivar Alto | 10-05-2026 04:45 | 1,9 | 95 | 0 | 0 | 213 | 0 | 1016,3 |
| 19 | Olivar Alto | 10-05-2026 04:30 | 2,3 | 96 | 0 | 0 | 213 | 0 | 1016,5 |
| 18 | Olivar Alto | 10-05-2026 04:15 | 2,1 | 96 | 0 | 0 | 213 | 0 | 1016,3 |
| 17 | Olivar Alto | 10-05-2026 04:00 | 1,7 | 96 | 0 | 0 | 213 | 0 | 1016,5 |
| 16 | Olivar Alto | 10-05-2026 03:45 | 0,6 | 94 | 0 | 0 | 213 | 0 | 1016,3 |
| 15 | Olivar Alto | 10-05-2026 03:30 | 0,9 | 93 | 0 | 0 | 213 | 0 | 1016,5 |
| 14 | Olivar Alto | 10-05-2026 03:15 | 1,5 | 94 | 0 | 0 | 213 | 0 | 1016,8 |
| 13 | Olivar Alto | 10-05-2026 03:00 | 1,9 | 94 | 0 | 0 | 213 | 0 | 1016,7 |
| 12 | Olivar Alto | 10-05-2026 02:45 | 2,3 | 94 | 0 | 0 | 213 | 0 | 1016,6 |
| 11 | Olivar Alto | 10-05-2026 02:30 | 2,4 | 95 | 0 | 0 | 213 | 0 | 1016,8 |
| 10 | Olivar Alto | 10-05-2026 02:15 | 2,3 | 95 | 0 | 0 | 213 | 0 | 1016,9 |
| 9 | Olivar Alto | 10-05-2026 02:00 | 2,5 | 94 | 0 | 0 | 213 | 0 | 1017,2 |
| 8 | Olivar Alto | 10-05-2026 01:45 | 2,8 | 95 | 0 | 0 | 213 | 0 | 1017,2 |
| 7 | Olivar Alto | 10-05-2026 01:30 | 2,6 | 94 | 0 | 0 | 213 | 0 | 1017,2 |
| 6 | Olivar Alto | 10-05-2026 01:15 | 2,6 | 94 | 0 | 0 | 213 | 0 | 1017,4 |
| 5 | Olivar Alto | 10-05-2026 01:00 | 2,8 | 95 | 0 | 0 | 213 | 0 | 1017,4 |
| 4 | Olivar Alto | 10-05-2026 00:45 | 2,5 | 94 | 0 | 0 | 213 | 0 | 1017,5 |
| 3 | Olivar Alto | 10-05-2026 00:30 | 2,3 | 93 | 0 | 0 | 213 | 0 | 1017,4 |
| 2 | Olivar Alto | 10-05-2026 00:15 | 2,6 | 93 | 0 | 0 | 213 | 0 | 1017,3 |
| 1 | Olivar Alto | 10-05-2026 00:00 | 3,3 | 93 | 0 | 0 | 213 | 0 | 1017,3 |